Wind_Speed
26 27 25 23 22 21 22 21 20 19 17 15 15 14 13 11 9 7 5 4 5 6 6 6 7 8 9 9 10 11 12 13 13 14 15 17 17 17 17 18 19 20 21 22 23 25 26 28 29 31 32 32 34 34 35 36 36 36 37 37 38 38 39 39 40 40 40 41 41 41 41 41 41 42 44 46 49 51 53 55 57 57 58 58 58 57 57 56
26 27 24 22 21 21 21 21 21 20 18 17 17 15 13 10 8 6 6 6 7 7 7 8 9 9 10 11 12 12 13 14 15 15 17 17 16 17 18 19 20 21 22 23 26 27 29 30 31 33 34 34 35 35 35 36 37 38 38 39 39 40 41 42 43 43 44 44 44 45 44 44 44 45 46 48 50 52 55 57 58 59 59 60 60 59 59 58
28 28 24 21 22 22 21 22 23 21 19 19 17 14 12 9 7 7 8 8 8 8 9 9 10 11 11 12 12 13 14 15 15 16 16 16 16 17 18 19 20 22 23 25 27 28 29 30 31 33 34 34 35 35 36 37 38 38 39 40 41 42 43 43 44 45 45 46 47 47 47 47 47 47 47 49 50 52 55 58 60 60 61 60 60 60 59 59
29 27 23 23 24 23 22 21 22 21 20 19 16 13 10 9 9 10 9 9 9 9 10 10 11 12 12 12 11 13 14 15 15 15 15 16 17 18 18 20 21 23 25 26 27 28 29 30 31 33 34 34 35 36 36 38 39 39 40 41 42 43 44 44 45 45 46 47 48 49 49 50 50 50 50 50 51 52 54 57 59 61 62 62 62 62 61 61
28 26 25 25 24 23 21 21 22 22 20 17 14 12 11 11 11 11 10 10 11 11 11 12 12 12 12 12 11 13 14 14 14 14 15 16 17 18 19 21 23 24 26 26 27 28 30 31 32 34 34 35 36 36 37 39 40 40 41 42 42 43 44 45 45 46 47 48 49 50 52 53 54 54 54 53 54 54 55 56 58 60 62 64 64 65 64 63
28 25 24 24 23 23 23 24 24 22 18 15 14 13 13 13 12 11 11 12 12 12 12 13 12 12 11 11 11 14 14 14 14 14 15 16 17 19 21 22 24 24 25 26 27 28 30 32 33 34 34 35 36 37 39 40 41 42 42 42 43 44 45 45 46 46 47 49 50 51 53 54 56 57 57 58 58 57 57 57 58 59 62 64 65 66 65 64
28 25 25 26 27 27 26 24 23 20 17 15 15 15 15 13 12 13 13 13 13 13 13 13 12 11 11 11 12 14 13 13 14 14 15 16 18 20 21 22 23 24 25 26 28 30 31 32 34 35 35 36 37 39 40 41 42 43 43 44 44 45 45 46 46 47 48 49 50 51 53 54 56 58 59 60 61 60 59 59 59 60 61 63 65 66 66 66
30 29 30 31 29 27 26 23 21 19 17 17 16 16 14 14 14 14 14 14 13 13 13 12 12 11 11 11 12 13 13 13 14 15 16 17 18 20 21 21 22 24 26 28 30 31 32 33 34 35 36 37 39 40 42 42 43 44 44 45 45 46 46 47 47 48 48 49 50 52 54 55 57 59 61 62 62 62 61 60 59 60 61 63 64 65 66 67
33 32 31 30 28 26 25 22 20 19 19 18 17 15 15 16 16 15 15 14 14 13 12 12 12 11 10 12 13 13 12 13 14 16 17 18 19 20 20 21 23 25 27 29 30 31 32 33 35 36 37 38 39 41 42 43 44 45 45 45 46 47 47 48 48 49 49 50 51 54 56 57 59 61 62 63 62 60 59 59 59 60 61 62 63 65 66 66
32 31 29 28 27 25 23 21 20 20 19 18 16 16 17 17 16 16 15 15 14 13 12 11 11 10 11 13 12 11 12 13 14 16 17 18 19 19 20 23 25 27 28 29 30 31 32 33 34 36 37 39 40 41 43 44 45 46 46 46 46 48 48 49 49 49 50 51 53 56 58 59 62 63 64 63 61 59 59 58 58 58 59 60 61 63 64 65
29 29 28 26 25 24 23 22 21 20 19 18 18 18 17 17 16 16 15 14 14 13 12 11 10 10 12 11 9 11 13 13 14 16 17 18 18 20 22 25 27 28 28 29 30 31 32 33 34 36 38 40 41 42 43 45 46 46 47 47 47 48 49 49 50 50 51 53 55 58 60 62 63 65 66 66 65 64 63 62 60 59 58 57 57 58 60 62
28 27 26 24 24 24 24 23 22 20 19 19 19 19 18 17 17 16 15 13 13 11 11 11 11 11 11 9 10 12 13 13 15 16 16 17 19 22 24 26 27 28 28 28 29 30 32 33 35 37 39 40 42 43 44 46 47 47 47 48 48 48 48 50 51 51 52 53 56 59 61 63 63 65 67 68 69 69 68 65 63 60 58 55 54 53 54 56
26 25 24 24 24 25 24 23 21 20 20 20 20 19 18 18 17 15 13 13 12 11 11 11 11 10 9 10 12 12 12 14 15 16 17 19 21 24 26 26 26 26 27 28 29 31 32 34 36 38 39 41 43 44 45 47 48 48 48 48 50 49 49 51 53 52 52 54 57 60 62 62 62 64 66 68 69 69 69 67 65 62 58 55 52 50 50 51
24 24 24 24 25 25 24 22 21 21 21 21 20 19 19 17 15 14 13 13 12 11 10 10 10 9 10 12 12 12 13 14 15 17 19 21 23 25 26 26 26 26 27 29 30 32 34 35 37 39 41 43 44 45 47 48 49 50 49 50 52 52 52 53 53 53 53 55 58 61 62 62 62 63 65 67 67 68 68 67 66 63 59 56 53 51 50 50
24 24 24 25 25 24 22 22 22 22 22 21 21 20 18 16 15 14 14 13 11 11 10 10 10 11 12 13 12 11 13 14 17 19 21 23 24 25 25 25 26 27 28 30 32 34 35 37 38 40 42 44 45 46 47 48 49 50 51 52 53 54 55 55 55 54 54 58 59 61 62 61 61 63 64 65 65 66 65 65 64 62 59 57 55 53 52 51
24 25 25 26 25 23 22 23 23 23 22 22 21 19 17 15 15 15 14 12 11 11 12 11 12 12 12 12 11 12 15 18 20 21 22 24 24 24 24 25 26 28 29 31 33 34 36 38 40 41 43 44 45 46 47 47 48 50 52 53 54 56 58 57 56 55 57 59 60 63 64 61 61 62 63 63 63 63 62 62 61 60 59 57 55 53 51 50
25 26 26 25 24 23 24 24 24 24 23 22 20 18 16 15 15 14 13 11 12 13 13 12 12 11 11 12 13 16 19 21 21 22 23 23 24 24 24 26 27 29 31 32 34 37 39 40 41 42 42 43 44 45 47 47 49 51 54 56 57 59 61 60 59 59 61 63 64 67 66 62 62 61 61 61 61 61 61 60 60 59 58 56 54 53 51 50
26 26 26 25 24 24 25 24 24 24 23 21 19 17 16 15 14 13 12 12 13 14 13 12 12 12 13 15 18 20 21 21 22 23 23 22 23 24 25 26 28 29 32 34 37 39 40 41 41 41 41 42 44 45 48 49 52 54 56 59 60 62 63 62 62 63 65 66 67 70 68 63 62 61 60 60 59 60 60 59 58 57 56 55 55 54 53 52
27 27 26 25 25 25 25 24 24 23 21 20 18 17 16 14 14 13 13 13 15 15 13 13 14 14 16 18 20 21 22 22 22 23 23 22 23 24 25 26 28 31 34 36 37 38 39 40 40 39 40 43 44 46 49 51 53 56 58 60 62 64 63 63 64 65 67 68 69 72 68 64 63 61 60 59 58 58 57 56 56 56 55 55 55 54 54 53
27 26 25 26 26 26 25 25 23 22 20 19 17 16 15 14 14 14 13 14 16 15 13 15 16 17 19 20 21 22 22 23 23 23 23 23 24 25 27 28 31 33 34 35 36 37 39 39 40 41 43 45 45 47 49 51 54 56 58 60 62 65 65 64 65 65 68 70 71 72 69 66 64 62 60 58 56 55 53 53 52 52 52 52 53 53 53 53
27 26 26 27 27 26 26 25 23 21 19 18 17 16 15 14 14 13 14 15 16 14 14 16 16 18 20 21 22 23 23 23 23 23 23 24 26 27 28 30 32 32 33 35 37 38 39 40 41 43 44 45 46 47 49 52 55 57 58 60 62 66 67 66 66 65 67 72 73 72 72 69 65 62 61 57 55 52 50 48 48 48 49 50 50 51 51 51
26 26 27 27 27 27 26 24 22 20 19 18 18 16 14 14 14 14 15 17 15 14 15 16 17 19 21 22 22 22 22 22 23 24 25 26 27 28 29 31 31 32 34 36 37 38 39 40 42 44 45 46 46 48 50 53 55 57 59 61 63 67 69 68 68 67 68 72 75 75 75 72 66 63 62 58 55 51 48 47 47 47 47 47 47 47 48 48
27 28 28 27 27 27 25 23 21 20 19 19 18 16 15 15 15 15 15 16 15 15 16 17 19 21 21 22 21 22 23 23 24 25 26 26 28 29 30 31 32 34 35 36 37 38 39 41 43 45 46 47 48 49 51 53 55 57 60 62 65 67 69 71 72 69 68 72 77 78 79 76 70 67 65 62 58 54 51 50 49 48 44 43 44 45 46 47
28 28 28 28 27 26 24 22 21 20 19 19 18 17 17 17 16 15 15 16 15 15 16 18 20 20 21 21 21 22 23 23 25 25 25 27 28 29 30 32 34 35 36 37 37 38 40 42 44 46 48 49 49 50 52 53 55 58 61 63 66 67 68 72 74 71 70 75 79 81 82 79 75 73 69 65 63 59 56 54 53 51 45 43 43 44 46 48
29 28 28 28 26 24 23 22 20 20 19 19 18 18 17 17 16 16 16 16 15 16 17 18 19 19 20 20 21 22 22 23 24 24 26 27 28 30 32 33 35 37 37 38 38 39 41 42 44 47 48 50 50 51 52 55 57 59 61 63 65 67 69 72 74 71 72 78 81 82 83 80 77 77 74 69 67 64 58 55 55 52 46 44 45 47 50 51
29 29 28 27 25 24 22 21 20 20 19 19 18 18 17 17 16 16 16 16 16 16 17 17 18 18 19 20 20 21 22 23 23 25 27 28 29 31 33 36 37 38 38 38 38 40 41 43 45 47 49 50 51 52 53 56 58 60 62 63 65 67 69 72 73 72 73 79 82 81 82 81 78 78 76 72 70 66 60 58 59 54 47 46 48 49 52 53
29 28 27 25 23 22 21 20 20 20 19 19 19 18 17 17 16 16 15 15 16 16 16 17 18 18 18 19 19 20 22 23 24 26 28 28 30 32 35 37 38 38 38 39 39 41 42 43 45 47 49 51 52 53 55 56 58 60 62 64 65 66 68 71 74 73 74 79 82 82 82 81 80 79 77 73 70 67 65 64 63 60 55 52 53 54 55 57
28 27 25 23 22 21 21 20 19 18 18 18 18 18 17 17 16 15 15 14 16 16 15 16 17 17 18 18 19 20 22 24 25 26 28 29 31 33 35 37 39 39 39 39 40 42 43 43 46 47 49 52 54 55 56 57 59 61 63 64 65 65 65 69 73 73 75 80 82 82 82 83 81 78 76 73 71 70 68 66 64 62 61 60 59 59 60 60
27 25 24 22 21 21 21 20 19 18 18 18 18 17 17 16 16 15 14 14 15 15 14 15 16 16 17 18 19 20 22 24 25 26 28 30 31 33 35 37 38 40 40 41 41 42 44 45 46 48 50 53 55 56 57 58 60 61 63 65 64 64 65 68 72 74 76 80 82 82 82 83 82 79 76 74 73 71 69 67 66 64 63 62 61 60 60 58
25 24 22 21 21 21 20 20 19 18 18 18 18 17 17 16 15 14 13 13 13 14 14 14 15 15 17 18 20 21 23 25 26 27 29 31 32 34 35 35 37 40 42 43 43 44 45 46 47 49 51 53 55 56 58 59 61 62 64 66 67 67 68 69 73 76 76 77 80 82 82 82 82 80 78 77 75 72 70 69 67 66 64 63 61 59 56 53
23 22 22 21 21 21 20 19 19 18 18 18 17 17 16 15 13 12 12 12 12 12 13 13 14 15 17 19 20 22 24 25 26 27 29 30 31 32 32 33 35 38 40 43 44 45 46 46 48 50 52 54 55 56 58 60 61 62 64 67 69 71 72 73 76 78 76 75 80 83 84 83 82 81 80 79 77 74 72 70 68 67 65 62 59 56 52 48
23 22 22 21 21 20 20 19 19 18 18 17 16 16 14 13 11 10 10 10 10 11 12 13 14 16 17 19 21 22 23 24 25 26 28 29 31 33 33 35 37 38 40 42 44 44 45 46 49 50 52 54 55 57 59 60 62 63 64 67 72 76 77 77 78 80 77 75 80 84 85 84 83 82 82 81 78 76 73 71 69 66 64 60 56 52 49 47
22 22 22 21 21 20 20 19 19 18 17 16 15 14 13 11 10 10 10 10 10 11 11 12 14 16 17 19 21 22 22 24 25 26 28 31 33 35 37 38 39 40 42 43 44 45 46 46 48 50 52 54 56 58 60 62 64 66 67 70 74 78 79 77 79 82 80 76 80 84 85 86 85 84 83 81 80 79 76 72 70 67 64 60 54 50 48 49
22 22 22 21 20 20 19 19 18 17 16 15 14 13 11 10 9 9 9 9 10 10 11 12 14 16 17 19 20 22 22 24 26 28 30 32 33 35 37 38 39 40 42 43 45 47 48 48 49 51 53 55 57 59 61 64 65 67 69 70 72 76 78 77 77 80 81 79 79 83 85 87 88 86 84 83 82 81 77 73 71 67 63 58 52 49 49 50
22 21 21 20 19 19 18 18 17 16 15 14 12 11 9 8 8 8 8 9 9 10 10 12 14 15 17 19 20 22 23 25 27 29 31 32 34 36 38 39 40 41 42 43 45 47 49 49 50 51 53 55 57 59 61 64 65 66 68 69 70 72 75 76 75 78 80 78 77 81 85 87 88 87 85 84 83 81 78 74 70 66 61 55 50 49 49 49
21 20 20 19 18 17 17 16 15 14 13 12 10 9 8 7 7 7 7 8 8 9 10 12 13 16 18 19 20 22 24 26 28 30 32 33 35 37 39 40 42 43 44 45 45 47 48 49 50 51 53 55 57 59 61 63 65 67 68 69 70 70 72 74 75 77 79 77 75 79 85 87 88 88 86 85 83 80 78 74 69 65 60 54 50 50 49 48
20 19 19 18 17 16 16 15 13 12 11 9 8 7 6 6 6 6 7 7 8 9 10 12 14 16 18 19 21 23 25 27 30 32 33 34 36 38 40 41 43 44 45 46 46 47 48 49 49 51 53 55 57 59 61 63 66 68 69 70 70 70 70 72 75 77 79 79 76 77 84 87 88 88 87 85 83 81 78 74 70 65 61 55 51 50 49 48
19 18 17 16 16 15 14 13 12 11 10 8 6 5 5 5 5 6 7 7 8 9 11 12 14 16 18 20 22 24 26 28 31 33 34 35 37 39 40 41 43 45 46 46 46 47 48 49 50 51 52 54 56 59 61 63 65 68 69 69 70 70 71 71 74 76 78 81 80 78 81 86 87 88 88 86 83 82 81 77 72 67 61 57 53 50 49 49
17 17 16 16 15 14 13 12 10 9 8 7 5 3 3 3 5 6 7 8 9 9 11 12 14 16 18 20 22 24 27 29 31 33 35 36 38 39 40 42 43 45 46 47 47 47 48 49 51 51 52 54 56 58 61 63 65 67 68 68 69 69 69 70 71 73 75 79 82 81 81 85 87 87 87 86 83 83 83 80 74 68 62 57 53 51 49 49
16 15 15 15 14 13 12 11 9 8 6 5 4 3 2 3 4 5 7 8 9 9 10 12 14 16 18 20 22 24 27 30 32 34 36 37 38 39 40 42 43 45 46 47 48 48 48 49 50 51 51 53 55 58 61 63 65 67 68 69 68 68 69 70 70 71 74 77 81 81 81 83 87 88 87 86 83 82 83 81 76 69 63 57 53 51 49 49
15 14 14 14 14 13 11 10 8 7 5 4 3 3 4 5 5 5 7 8 9 9 11 12 15 17 19 20 23 25 28 30 32 34 36 37 39 40 41 42 43 45 46 47 48 49 49 50 50 51 51 53 55 57 61 63 65 66 68 68 68 68 69 70 70 71 73 76 79 80 81 83 87 89 88 86 83 82 82 81 78 72 65 58 53 51 49 48
14 13 14 13 13 12 10 9 7 5 3 1 1 3 4 5 6 6 7 8 9 10 11 13 15 18 19 21 23 26 28 30 32 35 36 38 39 40 41 42 43 44 46 47 48 49 50 50 51 52 52 53 55 57 60 63 63 64 65 66 66 67 68 69 70 70 72 75 77 78 79 81 84 87 87 85 83 82 81 81 80 75 67 61 55 52 50 48
12 13 13 12 12 11 9 7 6 5 3 2 3 4 5 6 6 7 7 8 10 11 12 14 16 18 20 22 24 26 29 31 33 35 37 38 39 41 42 43 43 44 45 47 48 49 50 51 52 52 51 51 53 55 57 60 61 62 63 65 66 67 68 69 70 70 71 73 76 77 77 78 81 84 85 85 84 83 82 82 81 78 71 63 57 53 50 48
11 11 11 10 10 9 8 7 6 6 5 4 5 5 6 6 7 8 8 9 10 12 13 15 17 19 21 23 25 27 29 31 33 35 37 39 40 41 42 43 44 44 46 46 47 48 50 52 53 53 53 52 52 54 55 57 59 61 63 65 66 67 68 69 70 70 70 70 74 76 76 76 78 81 83 84 84 83 83 82 81 79 74 66 60 55 51 48
10 9 9 8 8 8 7 7 6 6 6 5 5 6 7 7 7 8 9 9 11 12 14 16 18 20 22 23 25 28 30 32 34 35 37 39 40 41 42 44 44 45 46 46 46 47 49 51 53 54 55 55 55 56 57 58 59 61 63 65 67 68 68 69 70 71 71 69 69 72 74 74 75 79 81 82 84 84 84 84 81 79 75 69 63 58 53 49
9 9 8 7 7 7 6 6 5 5 6 6 6 7 7 7 8 9 10 10 12 13 15 17 18 20 22 24 26 28 30 32 34 36 37 39 40 41 43 44 45 45 46 47 47 47 47 49 51 53 54 54 55 55 56 57 59 61 62 64 66 68 68 69 69 70 71 70 68 70 74 74 74 77 80 82 84 85 85 85 84 81 77 73 68 62 56 52
8 7 7 6 5 5 5 5 5 5 5 6 6 7 8 8 8 9 10 11 13 14 15 17 19 21 23 25 27 29 31 33 35 36 37 39 40 42 43 44 45 45 46 47 47 47 46 47 49 51 52 53 54 54 55 56 58 60 61 63 65 67 68 68 68 69 70 70 69 68 71 73 74 77 81 83 84 85 85 86 86 84 81 77 72 66 60 56
7 7 6 5 4 4 4 5 5 4 6 6 7 8 8 8 9 9 11 12 13 15 16 18 20 21 23 25 27 29 31 33 35 36 38 39 41 42 43 44 45 46 46 47 47 47 46 46 47 49 51 53 54 54 54 56 58 59 60 62 64 66 67 67 68 68 68 68 69 68 69 72 74 76 79 81 83 84 85 85 86 85 83 80 76 71 65 60
7 6 5 4 3 3 3 4 4 5 6 7 7 8 9 9 9 10 12 13 14 16 17 19 20 22 24 26 28 30 31 33 35 36 38 39 41 42 43 45 46 46 47 47 47 47 47 46 47 48 50 52 53 54 54 55 57 58 60 62 62 64 66 67 67 67 67 66 68 68 69 70 72 74 76 78 80 82 84 84 84 84 83 81 78 74 70 65
6 6 5 4 3 2 3 4 5 5 6 7 8 8 9 9 10 11 13 14 15 17 18 20 21 23 25 26 28 30 32 33 35 36 38 39 40 42 43 45 46 46 47 47 47 48 47 47 47 48 49 51 52 53 54 55 56 58 60 62 61 62 65 67 67 67 67 67 67 68 68 69 70 72 74 76 78 79 80 81 82 82 82 82 80 77 74 69
6 5 4 3 3 3 4 5 6 6 6 7 8 9 9 10 11 12 13 15 16 18 19 21 22 24 25 27 28 30 31 33 35 36 37 39 40 42 43 44 45 46 46 47 47 48 48 48 47 48 49 50 52 53 53 54 56 59 60 61 61 61 63 66 67 66 66 67 67 68 68 69 69 70 72 74 76 77 78 80 81 81 82 82 81 79 76 72
5 5 4 4 3 3 4 5 6 6 7 7 8 9 10 11 12 13 14 15 17 18 20 21 22 24 25 27 28 30 31 33 34 36 37 39 40 42 43 44 45 46 46 46 47 48 48 48 48 48 49 50 51 52 53 54 57 60 60 59 61 61 62 64 66 66 66 67 68 68 69 69 70 70 71 72 75 76 78 79 81 82 82 82 82 81 78 75
Wind_Direction
172 169 163 167 172 173 180 184 182 179 175 169 169 172 176 178 177 177 165 136 115 101 86 74 72 73 70 66 63 58 54 46 37 33 30 28 26 25 23 21 20 18 18 17 16 15 12 11 9 6 4 2 359 357 354 352 350 348 346 344 343 341 339 338 336 333 330 328 325 322 318 313 309 305 301 298 296 295 294 294 293 293 292 291 290 288 287 285
169 168 163 167 171 172 180 183 178 175 172 169 170 174 178 177 171 158 133 119 106 91 81 79 81 78 73 70 64 57 51 43 36 33 32 29 27 27 25 24 23 22 20 18 16 14 11 9 8 5 2 360 357 354 353 351 349 348 346 344 343 340 339 338 335 333 331 330 327 324 320 316 311 306 303 299 297 296 294 293 293 292 292 291 290 289 288 286
164 162 161 168 173 173 175 177 176 172 168 169 171 174 175 168 154 136 121 111 98 88 86 87 86 79 74 69 59 51 47 41 36 35 34 32 30 29 28 27 25 22 19 16 14 12 10 7 5 3 360 358 355 353 352 350 348 347 345 343 341 339 338 336 334 332 331 329 327 324 321 317 313 309 305 302 298 296 294 294 293 292 291 291 290 289 287 286
157 157 159 166 169 168 170 177 178 171 167 168 168 167 163 151 136 125 114 102 94 93 93 91 86 79 71 62 52 48 46 42 38 37 36 34 34 33 31 28 24 20 17 15 13 11 7 5 3 360 358 356 354 353 351 349 348 347 345 342 340 338 337 334 333 331 329 327 325 323 321 319 316 312 309 305 301 297 295 293 292 291 291 290 289 288 287 285
155 159 162 165 167 166 170 175 172 167 167 166 161 155 147 137 127 117 106 100 99 100 96 90 84 75 64 55 50 50 47 42 40 38 38 37 36 33 29 24 20 17 16 14 12 8 5 4 2 359 357 355 354 353 351 350 348 346 345 342 341 339 336 334 332 330 328 326 324 323 321 319 317 315 313 309 304 300 296 293 291 289 288 288 288 287 287 286
157 163 165 166 168 162 162 165 164 163 162 157 150 142 137 129 119 110 106 106 106 102 95 87 79 69 60 54 54 55 49 43 42 42 41 39 35 30 25 21 18 16 15 12 9 7 5 4 2 359 357 357 356 354 352 351 349 347 345 343 341 339 335 333 331 329 327 325 323 322 320 318 316 315 312 309 306 302 298 294 291 288 286 286 286 286 286 285
161 166 164 161 159 153 155 160 158 156 152 146 141 136 131 122 115 112 112 113 110 104 95 83 73 65 60 58 59 56 50 47 47 45 43 38 32 26 21 20 18 15 13 11 10 9 7 4 3 0 359 358 357 354 353 351 349 348 345 344 342 339 335 333 331 328 327 325 324 322 320 318 315 312 309 307 304 301 298 295 291 288 286 285 285 285 285 285
162 164 158 153 152 151 154 156 152 147 143 140 137 132 124 117 115 116 117 116 110 104 93 81 71 64 63 64 60 54 51 51 49 46 40 33 27 22 20 20 17 16 15 13 13 11 8 5 3 1 360 358 356 354 352 351 350 348 346 345 342 339 336 334 331 329 328 326 325 323 321 318 315 311 307 304 302 300 298 295 292 290 288 286 285 285 285 284
155 155 150 149 151 151 152 150 145 142 140 137 133 126 119 117 119 121 120 115 109 101 90 79 70 67 69 66 58 52 54 53 49 42 34 26 22 20 20 19 18 18 17 16 14 11 8 6 3 1 359 357 355 354 352 351 350 348 347 346 343 341 338 336 334 332 330 329 327 324 322 319 314 310 306 304 302 300 298 295 293 291 289 287 286 285 284 283
148 147 147 150 151 149 146 143 141 140 138 133 126 121 120 121 123 123 119 112 105 95 84 78 74 73 70 63 56 54 57 52 44 36 28 24 22 21 21 20 20 19 17 15 12 9 6 4 1 359 357 355 354 353 352 350 350 349 348 347 346 344 341 338 336 334 332 331 329 327 324 320 314 310 307 305 304 301 299 297 294 292 289 287 285 284 283 282
147 147 148 151 147 143 141 140 140 137 133 126 121 122 123 124 125 122 117 109 99 89 83 83 82 75 66 63 64 60 55 47 38 32 27 24 22 23 23 22 22 19 16 13 9 6 3 1 358 357 356 355 354 353 352 351 351 351 350 349 348 347 344 340 338 337 335 333 332 330 326 319 312 309 307 306 305 304 303 302 300 297 294 291 288 285 283 281
149 149 148 148 143 140 139 138 137 132 126 123 123 125 125 126 124 119 111 102 96 91 90 87 80 74 70 71 67 57 49 41 33 31 29 25 25 26 25 24 22 17 13 9 6 3 0 359 358 357 356 355 354 354 353 353 352 352 351 350 350 351 347 343 341 339 337 336 334 331 326 318 311 307 306 305 305 305 304 304 303 301 299 296 293 289 285 282
150 148 146 144 141 138 137 135 131 128 126 126 126 127 126 124 119 112 105 101 99 97 92 84 78 78 80 72 61 52 42 35 32 31 30 27 29 29 26 23 18 13 9 5 2 360 360 360 359 357 356 355 355 354 354 354 353 353 353 352 352 352 350 345 343 340 339 338 335 332 325 316 310 307 305 304 304 303 303 304 304 303 302 300 297 293 288 283
149 146 143 141 138 135 134 132 130 129 129 128 128 127 124 120 114 108 105 102 98 94 91 88 87 86 79 67 56 47 40 36 35 34 32 31 32 30 25 19 14 9 4 2 1 1 1 1 359 357 356 356 355 355 355 355 355 354 353 351 350 350 350 348 345 343 343 341 336 332 324 315 311 308 306 305 303 303 303 303 304 304 303 302 299 295 290 286
148 145 142 139 136 134 134 133 132 131 131 130 129 126 122 117 112 107 103 99 98 98 98 98 91 78 68 62 53 46 43 41 39 37 35 34 33 28 21 15 10 5 3 2 3 2 1 0 359 358 357 356 355 356 356 355 354 351 348 349 350 351 351 350 347 346 345 343 339 332 324 317 313 310 308 307 306 306 305 305 304 303 302 301 299 296 293 289
148 146 143 139 137 137 136 134 133 133 133 131 129 125 121 118 113 106 102 101 106 106 102 97 87 76 69 64 55 48 45 42 40 38 37 34 29 23 17 11 7 5 5 5 4 2 360 359 358 357 356 355 355 355 353 352 350 348 348 350 353 353 352 352 350 348 346 345 341 334 327 321 317 314 312 311 310 309 307 306 304 303 302 300 299 297 294 291
149 147 143 141 140 138 136 135 135 134 132 130 127 124 120 116 110 107 106 110 112 107 99 92 85 80 73 62 52 47 45 43 41 38 35 30 23 18 13 10 8 7 6 4 2 1 360 358 356 355 355 355 353 350 348 348 348 350 351 352 354 355 354 354 353 351 348 347 344 339 331 325 321 318 316 314 312 310 308 306 305 303 302 301 299 297 295 293
150 147 145 143 140 139 137 137 136 134 132 130 127 123 118 113 111 111 113 117 112 102 95 89 83 76 66 56 50 49 47 45 42 37 31 25 19 15 13 11 10 8 5 3 1 360 358 356 355 354 353 351 348 347 348 350 352 353 353 353 355 357 357 356 354 352 350 349 346 342 336 330 326 322 319 316 313 311 308 307 306 304 302 301 299 298 296 295
151 149 146 143 141 140 138 138 136 133 131 129 126 123 119 117 116 116 119 120 109 99 92 85 77 68 61 56 53 52 49 44 39 33 26 20 16 15 14 12 9 6 4 2 360 357 355 355 354 351 348 348 349 350 352 354 355 355 355 356 356 358 359 357 355 353 351 351 348 344 339 334 331 327 323 320 316 314 312 309 307 304 303 301 299 298 297 296
152 149 147 144 142 141 139 137 135 133 130 127 124 123 122 122 120 121 125 117 102 95 87 77 70 64 60 58 55 52 47 41 34 27 21 17 15 14 12 9 7 5 2 359 357 355 354 354 352 349 348 350 351 352 354 355 356 356 357 359 358 358 359 358 357 354 353 352 350 347 342 338 335 331 328 326 323 320 315 312 309 306 303 301 299 297 296 295
153 149 147 145 144 141 139 137 135 133 130 128 127 124 122 123 124 129 124 106 96 92 84 75 69 65 62 58 53 48 42 36 29 24 19 16 13 12 9 6 4 1 358 356 356 355 354 352 350 350 350 351 352 354 355 356 356 358 359 0 359 357 358 359 358 356 355 353 352 349 345 343 339 335 334 333 330 326 321 317 314 311 306 302 300 298 296 295
151 149 147 145 143 141 138 135 133 132 131 133 129 124 124 127 131 129 114 100 95 92 85 77 71 67 63 56 49 42 36 30 24 20 17 13 10 8 5 3 1 359 358 357 356 355 353 351 351 352 351 351 352 354 356 358 358 359 359 359 358 357 358 360 360 358 356 355 353 351 349 348 344 339 340 340 337 334 330 325 321 318 312 306 305 303 300 298
150 148 146 145 143 139 136 134 133 132 133 133 128 127 132 131 128 120 106 100 97 91 85 78 71 66 60 52 43 34 29 24 20 17 14 11 8 5 2 0 359 359 359 357 356 354 352 352 353 353 352 352 353 354 357 359 359 358 358 358 359 359 359 1 1 1 358 355 355 353 351 351 349 346 345 345 344 341 337 333 330 326 319 312 309 306 303 299
149 147 145 144 142 138 136 135 134 133 134 131 129 132 132 126 121 113 105 103 98 92 86 78 70 62 53 45 37 30 25 21 19 15 11 9 6 3 0 360 359 359 359 357 356 354 353 354 353 353 353 353 353 354 356 358 358 358 358 359 0 1 2 3 2 1 359 357 357 357 355 353 351 350 350 349 348 346 343 339 334 330 323 315 310 306 303 300
148 147 146 144 141 138 137 136 135 135 134 132 132 133 128 122 118 112 107 103 98 91 83 75 68 58 47 39 33 28 22 20 17 13 10 8 5 3 1 360 0 0 359 358 356 355 355 355 354 354 354 354 354 355 356 356 357 357 359 0 2 3 3 4 3 1 360 359 358 358 358 357 353 352 353 352 350 349 345 338 332 331 326 317 310 305 303 300
147 147 145 143 140 139 138 138 137 134 133 132 133 132 128 123 116 111 107 102 96 88 80 71 63 54 43 36 30 24 21 18 14 10 10 8 6 4 2 1 1 1 0 358 357 357 357 356 355 355 355 355 354 355 355 355 357 358 360 2 4 4 4 5 5 2 360 359 360 359 358 358 356 353 353 352 351 348 343 338 336 334 329 319 313 310 307 305
146 146 144 142 141 141 140 141 139 137 135 133 132 130 127 122 116 110 107 102 95 86 77 66 56 48 39 33 27 22 19 15 11 10 9 8 7 5 3 2 1 1 0 358 358 358 358 357 357 356 356 355 354 354 355 356 358 360 0 2 3 4 5 6 6 3 360 360 1 0 359 359 357 354 353 351 349 346 343 341 339 336 333 329 325 322 318 316
146 146 144 143 143 143 143 143 141 140 139 136 132 129 126 121 116 109 104 100 92 82 71 59 50 41 35 30 23 20 16 13 11 10 9 8 7 6 5 4 0 360 360 359 359 358 358 358 357 357 356 356 354 355 356 358 359 0 0 2 4 5 6 6 5 3 0 1 2 1 359 360 359 355 353 350 348 347 345 342 339 338 338 335 329 324 322 320
146 145 144 144 144 144 144 142 139 138 137 135 133 129 124 121 115 109 102 95 87 77 65 55 45 36 31 25 20 17 13 12 11 10 9 8 7 7 7 5 0 359 359 360 360 358 358 358 357 357 357 356 356 356 357 359 0 1 0 1 3 5 5 5 6 4 2 3 3 1 359 359 359 356 353 350 349 348 345 342 342 342 338 334 329 326 324 323
146 145 144 145 145 145 144 142 140 138 135 134 133 129 126 121 114 109 102 92 82 72 61 50 42 34 27 20 17 15 13 12 11 10 9 8 7 8 7 5 2 359 358 359 0 359 358 358 357 357 357 357 357 357 358 359 1 1 0 360 1 2 3 4 7 7 6 6 4 2 1 359 359 357 354 351 351 349 346 345 345 343 339 336 333 331 329 328
145 145 145 146 145 145 144 143 142 141 138 136 134 130 127 121 114 109 99 87 77 68 57 46 37 29 22 18 16 14 13 13 12 11 9 7 7 8 6 3 2 0 359 359 360 360 358 357 357 357 356 357 357 357 358 359 0 1 1 359 358 359 1 4 8 10 10 8 4 3 3 1 359 358 356 354 353 351 349 349 347 343 340 338 336 334 334 334
146 146 146 145 144 143 142 142 142 142 140 138 135 130 126 121 114 107 94 83 74 64 54 42 33 25 20 16 14 13 13 13 12 10 8 6 6 5 3 1 1 0 360 359 359 360 359 357 357 356 356 356 356 357 358 359 360 0 1 1 359 0 3 6 9 13 13 9 5 4 4 2 0 358 357 356 354 353 352 351 348 344 341 340 338 338 337 336
147 146 145 143 142 142 142 141 141 141 139 137 134 129 125 121 113 102 91 82 71 59 49 40 30 22 17 13 11 11 11 11 10 8 7 6 5 3 2 1 1 0 0 359 358 359 359 358 357 356 356 356 356 357 357 359 1 2 3 5 4 3 5 6 8 12 14 11 6 5 4 3 2 0 359 357 355 354 354 352 348 345 343 341 341 340 339 338
146 145 143 142 142 142 141 141 140 140 138 136 133 128 125 120 110 98 87 74 63 53 44 36 26 17 13 10 9 9 9 9 9 8 8 7 4 3 1 1 1 1 1 359 358 358 358 358 357 357 356 356 357 358 359 0 2 4 5 8 8 6 5 6 6 8 12 12 7 5 4 3 3 2 0 359 357 356 355 353 350 347 344 342 342 341 340 338
145 144 143 143 143 142 142 142 142 141 139 137 135 130 123 113 100 89 79 67 56 48 39 30 21 13 8 6 6 7 7 7 8 7 6 5 2 1 1 1 1 1 0 360 359 358 357 358 358 356 356 356 357 359 360 1 3 5 6 8 10 9 7 6 7 6 10 12 9 6 6 5 4 4 2 1 360 357 356 354 351 348 345 344 343 342 341 341
145 144 144 143 143 143 143 144 144 143 142 140 138 132 119 104 91 79 70 62 50 41 33 23 16 9 5 4 4 4 5 5 5 5 4 3 1 1 1 1 0 360 360 360 360 358 357 357 357 357 356 356 357 359 1 2 3 4 6 8 10 11 9 7 8 8 9 12 11 6 5 6 5 4 3 2 1 359 357 355 353 349 348 346 344 343 343 344
146 145 145 145 144 144 144 145 145 145 144 144 142 131 114 98 84 70 59 51 41 33 26 16 9 5 2 1 1 2 3 3 3 3 2 1 0 0 1 0 359 359 359 359 359 359 358 357 357 357 357 357 357 359 1 3 3 4 6 8 9 10 10 8 7 9 10 12 14 9 4 4 3 3 4 3 2 0 358 357 355 352 351 349 347 345 345 346
147 148 147 146 145 144 145 146 147 148 146 146 145 132 114 92 73 59 47 38 31 24 18 10 4 0 359 359 359 360 0 0 0 1 0 360 360 360 360 359 359 358 358 358 358 358 358 357 357 357 358 358 358 359 1 3 3 5 7 8 8 9 11 10 7 7 9 11 14 12 6 4 3 3 3 4 2 0 0 359 357 355 353 352 350 348 348 348
151 151 150 148 145 144 144 144 145 146 144 142 138 127 107 82 60 46 35 27 21 15 9 4 359 356 356 357 357 357 357 357 358 358 358 359 359 359 359 359 359 358 357 356 356 357 357 357 357 357 358 358 358 359 1 3 3 4 6 8 9 9 11 11 9 6 7 9 11 12 8 5 4 4 4 4 2 0 0 1 359 357 355 353 351 350 350 350
153 154 153 150 148 146 145 144 141 137 134 126 115 98 75 60 44 32 24 17 11 6 360 356 354 352 352 354 354 354 354 355 356 356 357 357 358 358 358 359 358 358 357 355 355 355 356 357 357 357 357 358 359 359 1 3 4 4 6 8 9 9 10 12 11 8 7 8 9 9 8 6 5 5 4 4 3 1 1 1 0 359 357 355 353 351 351 351
154 156 156 154 153 151 149 147 143 138 128 109 86 62 41 37 30 18 13 8 2 358 351 348 349 349 349 350 351 351 352 352 354 355 355 356 356 357 358 358 358 357 356 355 354 354 355 356 357 357 357 357 359 0 1 3 4 4 5 7 8 9 9 11 13 11 8 8 8 8 7 5 4 4 5 4 4 3 2 2 2 1 359 357 355 353 353 353
157 159 160 160 159 159 159 159 160 161 157 126 13 9 8 14 15 7 1 358 352 349 345 343 343 345 347 347 348 349 349 350 352 353 354 354 355 356 356 357 356 356 356 355 354 353 353 355 356 357 357 357 358 0 1 2 4 4 4 6 7 9 10 10 13 14 11 9 10 10 8 5 3 3 5 6 5 4 3 3 3 4 2 360 357 355 354 354
160 163 165 168 169 170 174 182 191 205 222 257 296 320 333 346 358 357 351 347 343 340 339 338 339 341 343 345 346 347 347 348 350 351 352 353 353 354 355 355 355 355 356 355 354 353 352 353 355 356 357 357 358 0 2 2 2 3 3 5 7 9 10 11 12 14 13 10 9 11 10 6 4 4 5 6 6 5 4 4 4 5 4 2 360 357 356 355
164 169 173 178 183 187 193 202 215 232 242 254 279 296 310 323 337 344 342 337 335 334 334 334 336 338 340 342 343 345 346 347 348 349 350 351 352 352 353 354 354 355 355 355 354 353 352 352 353 354 355 357 357 359 2 3 3 3 4 5 7 8 9 10 11 12 15 13 8 9 11 9 5 5 6 7 7 7 6 6 5 5 6 4 2 0 358 356
167 175 183 191 200 208 215 218 226 244 253 259 272 284 297 308 318 331 334 329 327 329 330 331 333 336 338 340 341 343 344 346 347 348 349 349 350 351 351 352 353 354 354 354 355 354 353 352 353 354 355 357 358 360 2 3 3 4 4 4 6 8 9 9 10 10 13 15 11 8 11 12 8 7 9 8 8 8 8 8 7 6 6 6 4 3 1 359
174 181 191 200 210 221 232 237 239 251 263 268 272 279 291 300 307 319 326 324 322 323 324 327 330 333 336 338 339 341 343 344 345 346 347 347 348 349 350 351 352 353 353 354 354 355 354 354 353 354 355 357 359 0 1 2 3 3 4 5 5 7 8 8 9 10 11 13 13 8 8 11 10 9 10 10 9 8 8 8 9 8 8 7 7 5 3 1
180 187 194 206 222 233 245 251 255 264 272 275 278 281 286 293 301 311 318 320 318 317 320 323 327 330 333 336 338 340 341 342 343 345 345 346 347 348 349 350 351 351 352 353 353 354 355 355 355 355 355 356 358 359 360 1 2 2 4 5 4 5 7 8 8 9 9 11 13 12 9 9 9 9 10 10 9 9 8 8 8 9 9 9 8 7 5 4
186 191 198 213 234 248 260 266 269 278 280 280 283 284 284 290 299 306 311 315 314 314 317 320 324 328 331 333 336 338 339 340 341 343 344 345 346 346 347 348 349 350 351 352 352 353 354 355 356 355 355 356 357 358 359 0 1 1 3 5 5 4 6 7 7 8 9 9 11 12 11 10 10 9 9 10 9 8 9 8 8 9 9 9 9 9 7 6
192 199 209 223 237 257 280 288 291 290 286 286 288 286 286 290 296 302 306 310 312 313 316 319 322 326 329 331 334 336 337 339 340 341 343 343 345 345 346 347 349 350 350 351 351 352 353 355 356 356 356 356 356 357 359 360 360 1 4 6 5 3 4 6 6 7 8 8 9 11 11 10 10 10 10 10 10 9 9 9 9 9 9 10 10 10 10 8
197 205 216 232 248 278 298 304 307 302 295 295 293 290 292 293 295 299 302 306 309 311 314 317 320 324 327 329 332 334 335 337 338 340 341 342 343 344 345 346 347 348 349 349 350 351 352 353 355 357 356 356 356 357 358 359 359 2 4 5 5 3 3 4 5 6 7 8 8 10 11 12 12 10 9 10 10 10 9 10 9 9 10 10 11 11 11 10
204 211 223 240 261 300 309 307 311 309 304 304 300 296 296 296 297 299 301 305 308 310 313 316 319 321 325 327 330 332 334 335 336 338 340 341 342 343 344 345 346 347 348 348 349 350 351 352 354 356 356 356 356 357 358 359 360 3 5 4 4 5 3 3 4 5 5 6 8 8 10 11 13 12 10 9 10 10 10 10 10 10 10 10 11 12 12 12
215 224 236 249 269 305 316 313 314 313 312 312 309 304 301 300 301 302 303 305 308 311 313 315 318 321 323 326 328 330 332 333 335 337 338 340 341 342 343 344 345 346 347 347 348 349 350 351 352 354 356 356 356 357 357 358 1 3 4 3 4 5 4 3 3 4 4 5 6 7 8 9 12 13 11 10 10 11 10 10 10 10 10 10 11 12 12 13
Height
5810 5813 5815 5818 5820 5822 5824 5826 5828 5830 5832 5833 5834 5836 5837 5838 5838 5839 5840 5840 5841 5842 5842 5842 5842 5842 5842 5842 5842 5842 5841 5841 5840 5840 5839 5837 5836 5836 5835 5834 5833 5832 5831 5829 5828 5827 5825 5823 5821 5819 5817 5815 5813 5811 5808 5806 5803 5801 5798 5795 5793 5790 5787 5783 5780 5777 5774 5771 5767 5764 5761 5757 5754 5751 5748 5744 5740 5736 5733 5729 5725 5722 5719 5716 5713 5711 5709 5708
5810 5813 5816 5818 5820 5822 5824 5826 5828 5830 5831 5833 5834 5835 5837 5838 5839 5839 5840 5841 5841 5842 5842 5842 5842 5842 5842 5842 5842 5842 5841 5841 5840 5839 5838 5837 5837 5836 5835 5834 5833 5831 5830 5828 5827 5825 5824 5822 5820 5818 5816 5814 5811 5809 5806 5804 5801 5798 5795 5792 5789 5786 5783 5780 5776 5773 5770 5766 5763 5759 5756 5752 5748 5745 5742 5738 5734 5730 5726 5722 5719 5715 5712 5709 5706 5704 5702 5699
5810 5813 5816 5818 5819 5821 5824 5825 5827 5829 5831 5832 5834 5835 5837 5838 5839 5840 5840 5841 5841 5841 5842 5842 5842 5842 5842 5842 5842 5842 5841 5840 5840 5839 5838 5838 5837 5836 5835 5833 5832 5831 5829 5827 5826 5824 5823 5821 5819 5817 5814 5812 5809 5807 5804 5801 5798 5795 5792 5789 5786 5783 5780 5776 5773 5769 5766 5762 5758 5755 5751 5747 5743 5740 5736 5733 5729 5725 5721 5716 5712 5709 5705 5703 5700 5697 5694 5691
5811 5813 5816 5818 5819 5821 5824 5826 5827 5829 5831 5832 5834 5836 5837 5838 5839 5840 5841 5841 5841 5841 5842 5842 5842 5843 5842 5842 5842 5842 5841 5841 5840 5839 5839 5838 5837 5836 5835 5833 5832 5830 5828 5827 5825 5824 5822 5820 5817 5815 5813 5810 5807 5804 5801 5798 5796 5793 5790 5787 5784 5780 5776 5773 5769 5766 5762 5759 5755 5750 5746 5742 5738 5735 5731 5727 5723 5719 5715 5710 5706 5702 5699 5696 5692 5689 5686 5683
5811 5813 5815 5818 5819 5821 5823 5826 5827 5829 5831 5833 5835 5836 5837 5839 5840 5840 5841 5841 5841 5842 5842 5843 5843 5843 5842 5842 5842 5842 5841 5841 5840 5839 5839 5838 5837 5836 5834 5833 5831 5829 5828 5826 5825 5823 5821 5818 5816 5813 5811 5808 5805 5802 5800 5797 5794 5791 5788 5785 5781 5777 5773 5770 5766 5762 5758 5754 5750 5746 5742 5738 5733 5729 5725 5721 5716 5711 5707 5703 5699 5695 5691 5687 5683 5680 5677 5674
5811 5813 5815 5818 5819 5821 5823 5826 5828 5830 5832 5833 5835 5836 5838 5839 5840 5840 5840 5841 5842 5842 5843 5843 5843 5843 5843 5843 5843 5842 5841 5841 5840 5840 5839 5838 5836 5835 5833 5832 5830 5828 5827 5826 5824 5822 5819 5817 5814 5812 5809 5806 5804 5801 5798 5795 5792 5789 5786 5783 5779 5775 5770 5766 5763 5759 5755 5751 5746 5742 5738 5733 5729 5724 5719 5714 5708 5703 5698 5694 5690 5686 5682 5678 5674 5671 5667 5664
5811 5814 5815 5817 5819 5821 5824 5827 5828 5830 5832 5834 5835 5837 5839 5839 5840 5840 5840 5841 5842 5843 5843 5843 5843 5843 5843 5843 5843 5842 5841 5841 5840 5839 5839 5837 5836 5834 5833 5831 5830 5829 5827 5825 5823 5820 5818 5816 5813 5810 5808 5805 5803 5800 5797 5794 5791 5787 5784 5780 5776 5772 5767 5763 5759 5755 5751 5747 5742 5738 5733 5729 5723 5718 5712 5707 5701 5695 5690 5685 5681 5677 5672 5669 5665 5661 5658 5655
5811 5814 5815 5817 5819 5822 5825 5827 5829 5830 5832 5834 5836 5838 5839 5839 5839 5840 5841 5842 5843 5843 5843 5843 5843 5843 5843 5843 5843 5842 5841 5841 5840 5839 5838 5837 5836 5834 5832 5831 5830 5828 5825 5823 5821 5819 5817 5814 5812 5809 5807 5804 5801 5798 5795 5792 5789 5785 5781 5778 5773 5769 5764 5760 5756 5751 5747 5743 5738 5733 5728 5723 5717 5710 5704 5698 5692 5687 5682 5677 5672 5668 5664 5660 5656 5653 5649 5646
5811 5814 5815 5817 5821 5823 5826 5828 5829 5831 5833 5835 5837 5838 5838 5839 5840 5841 5842 5843 5843 5843 5843 5843 5843 5844 5844 5843 5842 5842 5841 5841 5840 5839 5838 5836 5835 5833 5832 5830 5828 5826 5824 5822 5820 5818 5816 5813 5811 5808 5805 5803 5800 5797 5793 5790 5786 5783 5779 5775 5771 5766 5760 5755 5751 5746 5742 5738 5733 5728 5722 5716 5709 5702 5695 5689 5684 5679 5674 5669 5664 5660 5656 5652 5648 5644 5641 5637
5811 5814 5816 5819 5822 5824 5826 5828 5830 5832 5834 5836 5837 5837 5838 5839 5840 5842 5843 5843 5843 5843 5843 5844 5844 5844 5843 5842 5842 5842 5841 5841 5839 5838 5837 5835 5834 5832 5831 5829 5827 5825 5823 5821 5819 5817 5815 5812 5810 5807 5804 5801 5798 5795 5791 5788 5784 5780 5776 5771 5767 5762 5756 5751 5746 5742 5737 5733 5728 5722 5715 5708 5701 5692 5685 5680 5675 5670 5665 5661 5656 5652 5648 5643 5640 5636 5632 5628
5812 5815 5818 5821 5823 5824 5826 5829 5831 5833 5834 5835 5836 5837 5838 5840 5841 5842 5843 5843 5843 5843 5844 5844 5844 5844 5843 5842 5842 5842 5841 5840 5839 5837 5836 5834 5833 5831 5829 5827 5826 5824 5822 5820 5818 5816 5814 5811 5808 5805 5802 5799 5796 5793 5789 5786 5781 5777 5772 5767 5763 5759 5753 5746 5741 5736 5731 5726 5721 5715 5708 5700 5693 5686 5678 5672 5666 5661 5656 5651 5646 5642 5638 5634 5630 5627 5623 5619
5814 5817 5820 5822 5823 5825 5827 5830 5832 5833 5834 5835 5836 5838 5840 5841 5842 5843 5843 5843 5843 5844 5844 5844 5844 5843 5843 5843 5842 5841 5840 5839 5838 5836 5835 5834 5832 5830 5829 5827 5825 5823 5821 5820 5817 5815 5813 5810 5807 5803 5800 5797 5794 5791 5787 5783 5778 5774 5769 5764 5759 5755 5748 5741 5736 5731 5726 5722 5716 5711 5704 5694 5686 5679 5671 5664 5658 5652 5646 5640 5636 5631 5627 5624 5620 5617 5614 5610
5816 5818 5821 5823 5824 5826 5828 5830 5832 5833 5834 5836 5837 5839 5841 5842 5843 5843 5843 5844 5844 5844 5844 5844 5843 5843 5843 5843 5842 5841 5840 5838 5837 5836 5835 5833 5832 5830 5828 5827 5825 5823 5821 5819 5817 5815 5812 5809 5806 5802 5799 5796 5792 5788 5785 5780 5776 5771 5765 5760 5756 5752 5747 5740 5734 5729 5724 5719 5713 5706 5697 5687 5680 5673 5664 5657 5650 5643 5636 5631 5626 5621 5617 5614 5610 5607 5604 5600
5817 5820 5821 5823 5825 5827 5829 5830 5832 5833 5835 5837 5839 5840 5841 5842 5843 5843 5844 5844 5844 5844 5844 5843 5843 5843 5843 5842 5841 5840 5839 5838 5837 5836 5835 5833 5831 5830 5828 5827 5825 5823 5821 5818 5816 5813 5810 5807 5804 5801 5797 5793 5790 5786 5781 5777 5772 5767 5763 5759 5755 5751 5746 5739 5733 5727 5722 5716 5708 5700 5690 5680 5673 5665 5656 5649 5642 5634 5628 5622 5617 5612 5608 5604 5601 5597 5593 5591
5818 5820 5822 5824 5826 5827 5829 5831 5833 5835 5836 5838 5839 5841 5842 5843 5843 5843 5843 5843 5844 5844 5844 5843 5843 5843 5842 5841 5841 5840 5839 5838 5837 5836 5834 5833 5831 5830 5828 5826 5824 5822 5820 5817 5814 5811 5808 5806 5802 5799 5794 5790 5786 5782 5778 5774 5770 5766 5762 5758 5753 5748 5742 5736 5729 5722 5717 5711 5703 5693 5683 5674 5665 5656 5647 5640 5633 5626 5619 5614 5609 5604 5600 5596 5592 5588 5584 5581
5819 5821 5823 5825 5827 5828 5830 5832 5834 5836 5837 5838 5840 5841 5842 5843 5843 5843 5843 5844 5844 5844 5844 5843 5843 5843 5842 5842 5841 5840 5839 5838 5836 5835 5834 5833 5831 5830 5828 5826 5824 5822 5819 5816 5813 5810 5807 5803 5800 5796 5792 5788 5784 5780 5777 5775 5771 5766 5760 5754 5750 5744 5738 5732 5724 5717 5711 5705 5697 5686 5675 5667 5658 5648 5640 5632 5625 5618 5612 5606 5601 5597 5592 5587 5583 5579 5576 5572
5820 5822 5824 5826 5828 5830 5831 5833 5835 5836 5838 5839 5840 5841 5842 5843 5843 5843 5844 5844 5844 5844 5844 5843 5843 5843 5842 5842 5841 5840 5839 5837 5837 5836 5834 5832 5831 5829 5828 5825 5823 5820 5817 5815 5812 5808 5804 5800 5797 5794 5790 5786 5783 5780 5777 5774 5769 5763 5756 5749 5744 5738 5731 5725 5718 5711 5704 5697 5690 5679 5667 5659 5650 5640 5632 5624 5617 5610 5604 5599 5594 5589 5584 5580 5575 5571 5568 5564
5821 5823 5825 5827 5829 5831 5832 5834 5835 5837 5838 5839 5840 5841 5842 5843 5843 5844 5844 5844 5844 5844 5844 5844 5843 5843 5842 5841 5841 5840 5839 5838 5837 5836 5834 5832 5831 5829 5827 5824 5822 5819 5816 5812 5808 5804 5801 5799 5795 5792 5789 5786 5783 5779 5773 5768 5762 5756 5749 5743 5737 5731 5724 5717 5711 5705 5697 5691 5683 5673 5663 5654 5644 5635 5626 5618 5611 5604 5598 5593 5587 5582 5577 5573 5568 5564 5559 5556
5822 5824 5826 5828 5830 5831 5833 5835 5836 5837 5838 5839 5841 5842 5842 5843 5844 5844 5844 5845 5844 5844 5844 5844 5843 5843 5842 5841 5841 5840 5840 5839 5837 5836 5834 5832 5831 5828 5826 5824 5821 5818 5814 5810 5807 5804 5801 5798 5795 5792 5789 5785 5780 5774 5768 5763 5757 5751 5745 5738 5731 5726 5720 5713 5706 5699 5692 5686 5677 5667 5657 5648 5639 5630 5621 5613 5605 5598 5592 5587 5581 5576 5571 5566 5561 5556 5551 5547
5823 5825 5827 5829 5830 5832 5833 5835 5836 5838 5839 5840 5841 5842 5842 5843 5844 5844 5845 5845 5844 5844 5844 5844 5843 5843 5842 5842 5842 5841 5840 5838 5837 5835 5833 5831 5829 5827 5824 5822 5819 5816 5813 5810 5807 5804 5800 5796 5793 5790 5786 5781 5776 5771 5765 5760 5755 5748 5742 5735 5727 5721 5717 5711 5704 5696 5687 5679 5671 5661 5651 5642 5634 5625 5616 5607 5600 5593 5586 5580 5575 5569 5564 5559 5553 5548 5543 5539
5824 5826 5827 5829 5831 5832 5834 5835 5837 5838 5839 5840 5841 5842 5843 5844 5844 5845 5845 5844 5844 5844 5844 5844 5844 5843 5843 5842 5841 5840 5839 5838 5836 5835 5833 5830 5828 5825 5823 5820 5818 5816 5813 5810 5806 5802 5798 5795 5791 5787 5782 5777 5773 5768 5763 5757 5751 5745 5738 5732 5726 5719 5713 5707 5700 5692 5683 5673 5664 5655 5645 5636 5627 5618 5610 5602 5594 5587 5580 5574 5569 5563 5557 5551 5546 5540 5535 5531
5825 5826 5828 5830 5832 5833 5834 5836 5837 5839 5840 5841 5842 5842 5843 5844 5845 5845 5845 5844 5844 5845 5845 5845 5845 5844 5843 5842 5841 5841 5839 5838 5836 5834 5831 5829 5826 5824 5822 5820 5818 5815 5812 5808 5804 5800 5797 5793 5789 5784 5779 5775 5770 5765 5760 5754 5747 5741 5735 5730 5723 5716 5710 5703 5694 5684 5675 5666 5657 5649 5641 5634 5624 5612 5603 5595 5588 5580 5574 5568 5562 5556 5550 5544 5538 5533 5528 5523
5826 5827 5829 5831 5832 5834 5835 5837 5838 5839 5840 5841 5842 5843 5844 5845 5845 5845 5844 5844 5845 5845 5846 5846 5845 5844 5843 5842 5841 5840 5838 5836 5834 5832 5830 5828 5826 5823 5821 5819 5816 5813 5810 5806 5803 5799 5795 5790 5785 5781 5777 5772 5767 5763 5757 5752 5746 5740 5733 5727 5720 5711 5703 5696 5688 5679 5670 5661 5653 5645 5635 5626 5617 5605 5596 5588 5580 5573 5566 5560 5554 5548 5542 5537 5532 5527 5522 5518
5826 5828 5830 5832 5833 5834 5836 5837 5839 5840 5841 5842 5843 5844 5844 5845 5845 5845 5845 5845 5846 5846 5846 5846 5845 5844 5843 5842 5841 5839 5838 5836 5834 5832 5830 5828 5825 5823 5820 5818 5815 5812 5808 5805 5801 5797 5793 5788 5783 5779 5774 5769 5765 5760 5755 5750 5744 5737 5730 5723 5716 5708 5699 5689 5681 5675 5667 5658 5650 5641 5630 5618 5607 5598 5590 5581 5572 5565 5558 5551 5546 5541 5536 5531 5526 5521 5516 5512
5827 5829 5831 5832 5834 5835 5837 5838 5839 5841 5842 5842 5843 5844 5845 5845 5846 5846 5846 5846 5846 5846 5846 5846 5845 5844 5843 5842 5840 5839 5838 5835 5834 5832 5829 5827 5824 5822 5819 5816 5813 5809 5806 5802 5799 5795 5791 5786 5781 5776 5771 5767 5762 5757 5753 5748 5741 5735 5728 5720 5712 5704 5696 5688 5678 5669 5662 5654 5644 5636 5628 5617 5604 5591 5582 5574 5565 5557 5551 5546 5541 5537 5532 5526 5520 5516 5510 5506
5828 5830 5832 5834 5835 5836 5838 5839 5840 5841 5842 5843 5844 5845 5845 5846 5846 5846 5846 5847 5847 5847 5846 5846 5845 5844 5843 5842 5840 5839 5837 5835 5833 5831 5828 5826 5823 5820 5816 5813 5810 5807 5804 5801 5797 5793 5788 5784 5779 5774 5769 5764 5760 5756 5751 5745 5739 5732 5724 5717 5710 5702 5693 5685 5675 5665 5657 5651 5644 5635 5624 5611 5598 5585 5575 5567 5558 5552 5548 5543 5536 5531 5528 5523 5516 5510 5505 5499
5830 5832 5833 5835 5836 5837 5839 5840 5841 5842 5843 5844 5844 5845 5846 5846 5846 5847 5847 5847 5847 5847 5846 5846 5845 5843 5842 5841 5840 5838 5836 5834 5832 5829 5827 5824 5822 5818 5815 5811 5808 5805 5803 5799 5795 5790 5786 5782 5777 5772 5767 5762 5758 5753 5748 5742 5736 5729 5721 5714 5707 5700 5692 5683 5675 5666 5658 5651 5643 5630 5616 5602 5590 5579 5570 5561 5554 5549 5543 5536 5529 5524 5520 5514 5507 5501 5496 5490
5831 5833 5834 5836 5837 5838 5839 5841 5842 5843 5843 5844 5845 5845 5846 5846 5847 5847 5848 5848 5847 5847 5846 5845 5844 5843 5842 5841 5839 5837 5835 5833 5831 5828 5826 5823 5820 5817 5813 5809 5806 5803 5801 5797 5792 5788 5784 5780 5775 5771 5766 5760 5755 5750 5745 5739 5733 5726 5720 5713 5706 5698 5692 5685 5677 5668 5658 5649 5636 5620 5605 5596 5587 5576 5565 5558 5552 5546 5538 5531 5524 5517 5510 5503 5498 5493 5487 5482
5832 5834 5835 5837 5838 5839 5840 5841 5842 5843 5844 5845 5845 5846 5846 5847 5847 5847 5848 5848 5847 5846 5846 5845 5844 5843 5841 5840 5839 5837 5834 5832 5830 5828 5825 5822 5820 5816 5813 5809 5805 5801 5798 5795 5791 5786 5782 5778 5773 5769 5764 5758 5752 5746 5742 5736 5730 5724 5717 5711 5706 5700 5693 5687 5679 5668 5656 5642 5626 5611 5599 5589 5582 5572 5563 5556 5549 5540 5533 5526 5518 5510 5503 5498 5493 5487 5481 5475
5833 5835 5836 5837 5838 5840 5841 5842 5843 5844 5844 5845 5846 5846 5847 5847 5848 5848 5848 5848 5847 5846 5845 5844 5843 5842 5841 5839 5837 5835 5833 5831 5829 5826 5824 5821 5818 5815 5812 5809 5805 5799 5795 5791 5788 5784 5779 5775 5771 5766 5761 5756 5750 5744 5738 5733 5727 5722 5715 5708 5702 5698 5692 5684 5674 5663 5650 5634 5618 5608 5599 5589 5579 5570 5562 5554 5544 5535 5529 5521 5512 5505 5500 5494 5488 5481 5474 5468
5834 5835 5837 5838 5839 5840 5842 5843 5843 5844 5845 5846 5846 5847 5847 5848 5848 5848 5848 5847 5847 5846 5845 5844 5843 5842 5840 5838 5836 5834 5832 5830 5828 5826 5823 5820 5818 5815 5813 5810 5806 5801 5795 5790 5786 5782 5777 5773 5768 5763 5758 5753 5748 5742 5736 5730 5724 5719 5713 5707 5701 5695 5687 5678 5667 5653 5637 5624 5615 5608 5599 5587 5576 5568 5561 5551 5541 5534 5527 5517 5508 5501 5495 5489 5482 5475 5469 5463
5835 5836 5838 5839 5840 5841 5842 5843 5844 5845 5846 5846 5847 5847 5847 5848 5848 5848 5848 5847 5847 5846 5845 5843 5842 5841 5839 5837 5836 5834 5832 5830 5828 5826 5823 5820 5817 5814 5812 5808 5804 5800 5795 5790 5786 5782 5777 5771 5766 5761 5757 5752 5746 5740 5734 5728 5722 5716 5710 5703 5693 5683 5674 5665 5657 5645 5632 5623 5615 5605 5594 5585 5577 5568 5558 5548 5540 5533 5523 5511 5503 5497 5490 5484 5477 5470 5464 5459
5836 5837 5839 5840 5841 5842 5843 5844 5845 5845 5846 5847 5847 5847 5848 5848 5848 5848 5848 5847 5846 5845 5844 5843 5842 5840 5838 5837 5835 5833 5832 5830 5828 5825 5822 5818 5815 5812 5808 5805 5801 5797 5792 5788 5783 5779 5775 5770 5765 5759 5754 5749 5744 5737 5731 5724 5716 5708 5700 5689 5677 5666 5658 5651 5642 5636 5631 5623 5612 5602 5593 5586 5578 5567 5555 5546 5537 5527 5516 5507 5499 5492 5484 5478 5472 5466 5461 5456
5837 5838 5840 5841 5842 5843 5844 5845 5845 5846 5846 5847 5847 5848 5848 5848 5848 5848 5847 5847 5846 5845 5844 5842 5841 5839 5838 5836 5834 5833 5831 5829 5827 5824 5820 5817 5814 5811 5807 5803 5799 5795 5791 5786 5781 5776 5771 5767 5762 5756 5751 5745 5739 5733 5725 5718 5711 5703 5693 5684 5675 5662 5651 5642 5635 5631 5627 5620 5610 5602 5593 5583 5573 5564 5554 5545 5534 5522 5512 5503 5495 5487 5480 5475 5470 5465 5460 5454
5838 5840 5841 5842 5843 5844 5845 5845 5846 5846 5847 5847 5848 5848 5848 5848 5848 5848 5847 5846 5846 5844 5843 5842 5840 5839 5837 5836 5834 5832 5830 5828 5825 5822 5819 5816 5813 5810 5806 5802 5797 5793 5789 5785 5779 5774 5769 5764 5759 5754 5748 5742 5736 5730 5723 5715 5708 5701 5694 5686 5679 5667 5655 5646 5639 5631 5624 5619 5611 5604 5595 5585 5574 5564 5554 5544 5532 5519 5509 5501 5494 5488 5481 5475 5469 5464 5458 5452
5840 5841 5842 5843 5844 5845 5845 5846 5846 5847 5847 5848 5848 5848 5848 5848 5848 5847 5847 5846 5845 5844 5843 5841 5840 5838 5837 5835 5833 5831 5829 5827 5824 5821 5818 5815 5812 5808 5804 5799 5795 5791 5787 5783 5778 5773 5767 5762 5757 5752 5746 5740 5734 5728 5721 5713 5706 5700 5693 5684 5677 5670 5662 5653 5646 5637 5628 5622 5614 5603 5593 5583 5572 5562 5553 5542 5531 5520 5511 5504 5497 5488 5480 5474 5468 5462 5456 5450
5841 5842 5843 5844 5845 5845 5846 5846 5847 5847 5848 5848 5848 5848 5848 5848 5848 5847 5847 5846 5845 5844 5842 5841 5839 5838 5836 5834 5832 5830 5828 5826 5823 5820 5817 5814 5810 5806 5802 5798 5793 5789 5785 5780 5776 5771 5766 5761 5756 5751 5745 5738 5732 5726 5719 5712 5704 5696 5688 5681 5674 5669 5662 5652 5645 5639 5630 5622 5613 5600 5586 5575 5567 5560 5552 5541 5530 5521 5514 5506 5497 5488 5480 5473 5466 5459 5453 5447
5842 5843 5844 5845 5845 5846 5846 5847 5847 5847 5848 5848 5848 5848 5848 5848 5847 5847 5846 5845 5844 5843 5842 5840 5839 5837 5835 5833 5831 5829 5827 5824 5821 5819 5816 5812 5808 5804 5800 5796 5792 5787 5783 5778 5774 5770 5765 5760 5754 5749 5743 5737 5730 5723 5717 5710 5703 5695 5687 5680 5672 5665 5658 5649 5639 5631 5624 5615 5608 5600 5587 5575 5566 5558 5549 5538 5527 5520 5513 5505 5495 5486 5478 5470 5464 5458 5451 5445
5843 5844 5845 5845 5846 5846 5846 5847 5847 5848 5848 5848 5848 5848 5848 5847 5847 5846 5845 5845 5844 5842 5841 5839 5838 5836 5835 5833 5831 5829 5826 5823 5821 5817 5814 5811 5807 5803 5799 5795 5790 5786 5781 5776 5772 5768 5764 5758 5752 5747 5741 5736 5729 5722 5715 5708 5701 5695 5688 5680 5672 5663 5656 5648 5638 5629 5621 5612 5602 5594 5586 5576 5567 5558 5547 5536 5527 5519 5510 5501 5493 5484 5475 5468 5462 5456 5449 5443
5844 5845 5845 5845 5846 5846 5847 5847 5848 5848 5848 5848 5848 5848 5847 5847 5846 5846 5845 5844 5843 5842 5840 5839 5837 5836 5834 5832 5830 5828 5825 5822 5819 5816 5813 5809 5806 5802 5798 5794 5789 5785 5780 5775 5771 5766 5762 5758 5752 5746 5740 5734 5728 5721 5714 5706 5699 5692 5685 5678 5671 5664 5656 5649 5640 5629 5619 5610 5600 5591 5584 5577 5567 5557 5545 5536 5529 5520 5509 5500 5492 5483 5475 5467 5459 5453 5447 5441
5844 5845 5845 5846 5846 5846 5847 5847 5848 5848 5848 5848 5847 5847 5847 5846 5846 5845 5844 5843 5842 5841 5840 5838 5836 5835 5833 5831 5829 5827 5824 5821 5818 5815 5812 5808 5804 5801 5797 5793 5788 5784 5779 5774 5769 5764 5760 5756 5751 5745 5739 5733 5727 5720 5712 5704 5697 5690 5684 5677 5671 5664 5656 5649 5641 5630 5618 5608 5600 5590 5581 5573 5563 5553 5545 5539 5532 5523 5513 5503 5494 5484 5474 5466 5458 5452 5445 5439
5845 5845 5846 5846 5846 5847 5847 5847 5848 5848 5848 5847 5847 5847 5846 5846 5845 5844 5843 5842 5841 5840 5839 5837 5836 5834 5832 5830 5828 5826 5823 5820 5817 5814 5811 5807 5803 5799 5796 5792 5787 5783 5778 5773 5767 5762 5758 5754 5749 5743 5738 5731 5725 5718 5710 5703 5698 5692 5685 5679 5672 5664 5655 5646 5638 5631 5621 5611 5604 5595 5584 5574 5564 5556 5550 5545 5536 5525 5516 5505 5495 5484 5474 5465 5457 5451 5444 5438
5845 5845 5846 5846 5846 5847 5847 5847 5847 5847 5847 5847 5846 5846 5846 5845 5844 5844 5843 5842 5840 5839 5838 5836 5835 5833 5831 5829 5827 5824 5822 5819 5816 5813 5809 5806 5802 5798 5794 5790 5786 5782 5777 5772 5767 5761 5755 5751 5747 5743 5738 5733 5726 5720 5713 5706 5700 5694 5687 5680 5672 5663 5654 5646 5637 5630 5621 5611 5602 5594 5587 5579 5571 5563 5556 5548 5539 5529 5518 5505 5493 5484 5474 5465 5457 5451 5444 5437
5845 5846 5846 5846 5847 5847 5847 5847 5847 5847 5846 5846 5846 5845 5845 5844 5844 5843 5842 5841 5840 5838 5837 5835 5834 5832 5830 5828 5825 5823 5821 5818 5815 5811 5808 5804 5801 5797 5793 5789 5785 5780 5776 5771 5766 5760 5754 5748 5743 5740 5736 5732 5726 5720 5714 5707 5699 5692 5684 5676 5668 5660 5652 5644 5637 5630 5623 5613 5601 5594 5590 5584 5575 5566 5558 5550 5541 5531 5519 5506 5495 5484 5475 5466 5458 5451 5443 5437
5846 5846 5846 5847 5847 5847 5847 5846 5846 5846 5846 5845 5845 5844 5844 5843 5843 5842 5841 5840 5838 5837 5836 5834 5833 5831 5829 5826 5824 5822 5819 5816 5813 5810 5806 5803 5799 5796 5792 5787 5783 5779 5774 5770 5765 5760 5753 5747 5741 5735 5730 5724 5719 5714 5708 5702 5696 5689 5681 5673 5665 5658 5650 5642 5635 5627 5620 5615 5608 5599 5592 5586 5578 5569 5561 5552 5542 5531 5520 5510 5499 5487 5476 5467 5459 5451 5443 5437
5846 5846 5846 5846 5847 5846 5846 5846 5845 5845 5845 5844 5844 5843 5843 5842 5842 5841 5840 5839 5837 5836 5835 5833 5831 5829 5827 5825 5823 5820 5818 5815 5812 5808 5805 5802 5798 5794 5790 5786 5781 5777 5773 5768 5764 5759 5753 5747 5740 5734 5728 5722 5716 5711 5705 5700 5694 5687 5679 5671 5664 5657 5649 5642 5635 5627 5621 5616 5610 5599 5589 5583 5578 5570 5560 5549 5538 5528 5518 5509 5500 5489 5478 5467 5458 5449 5442 5436
5846 5846 5846 5846 5846 5846 5846 5845 5845 5844 5844 5843 5843 5842 5842 5841 5841 5840 5839 5838 5836 5835 5834 5832 5830 5828 5826 5824 5822 5819 5816 5813 5810 5807 5804 5800 5797 5793 5789 5784 5780 5775 5771 5766 5762 5758 5753 5747 5740 5734 5728 5722 5717 5711 5705 5699 5693 5686 5680 5671 5663 5655 5649 5642 5635 5629 5621 5614 5608 5601 5592 5583 5574 5564 5554 5544 5536 5527 5517 5506 5496 5486 5477 5467 5457 5449 5442 5436
5846 5846 5846 5846 5846 5845 5845 5845 5844 5843 5843 5842 5842 5841 5841 5840 5839 5838 5837 5836 5835 5834 5832 5831 5829 5827 5825 5823 5820 5818 5815 5812 5809 5806 5802 5799 5795 5791 5787 5783 5778 5774 5769 5765 5760 5756 5752 5747 5741 5734 5727 5721 5716 5710 5705 5699 5693 5687 5680 5671 5662 5655 5649 5643 5635 5628 5620 5612 5607 5601 5593 5583 5573 5564 5554 5544 5535 5526 5516 5505 5494 5486 5477 5468 5459 5451 5443 5436
5845 5845 5845 5845 5845 5845 5844 5844 5843 5842 5842 5841 5841 5840 5840 5839 5838 5837 5836 5835 5834 5833 5831 5829 5827 5825 5823 5821 5819 5816 5813 5810 5807 5804 5801 5797 5793 5789 5785 5781 5776 5772 5767 5763 5759 5754 5750 5746 5740 5734 5727 5721 5715 5710 5705 5699 5693 5687 5679 5671 5663 5656 5649 5643 5637 5630 5623 5615 5607 5600 5592 5583 5573 5564 5556 5548 5538 5527 5517 5508 5500 5491 5481 5471 5462 5453 5445 5437
5845 5845 5845 5845 5844 5844 5843 5843 5842 5841 5841 5840 5840 5839 5838 5838 5837 5836 5835 5834 5832 5831 5829 5828 5826 5824 5822 5820 5817 5814 5812 5809 5806 5803 5799 5796 5792 5788 5784 5779 5775 5770 5766 5761 5757 5753 5748 5743 5739 5734 5728 5721 5715 5709 5703 5697 5692 5685 5677 5670 5664 5657 5649 5641 5635 5628 5621 5614 5606 5599 5593 5585 5575 5566 5557 5548 5539 5531 5522 5514 5506 5496 5485 5476 5466 5457 5447 5438
5844 5844 5844 5844 5843 5843 5842 5842 5841 5841 5840 5839 5838 5838 5837 5836 5835 5834 5833 5832 5831 5829 5828 5826 5824 5822 5820 5818 5816 5813 5810 5807 5804 5801 5798 5794 5790 5787 5782 5778 5774 5769 5765 5760 5756 5751 5746 5741 5737 5732 5727 5721 5715 5709 5703 5698 5691 5684 5676 5670 5665 5657 5648 5640 5633 5626 5619 5613 5605 5597 5589 5583 5577 5568 5558 5548 5541 5534 5525 5516 5507 5496 5487 5478 5469 5459 5449 5440
5843 5843 5843 5843 5843 5842 5842 5841 5841 5840 5839 5838 5837 5837 5836 5835 5834 5833 5832 5830 5829 5828 5826 5824 5823 5821 5819 5816 5814 5811 5809 5806 5803 5800 5797 5793 5789 5785 5781 5777 5772 5768 5763 5759 5754 5749 5744 5739 5734 5730 5725 5720 5714 5708 5702 5696 5689 5682 5676 5671 5664 5657 5649 5641 5633 5626 5618 5609 5601 5593 5587 5582 5575 5566 5558 5549 5541 5532 5523 5514 5504 5494 5486 5478 5470 5460 5450 5440